OpenBCM V1.13 (Linux)

Packet Radio Mailbox

DB0FHN

[JN59NK Nuernberg]

 Login: GUEST





  
LU1HVK > KEP      10.01.20 18:05l 242 Lines 12024 Bytes #999 (0) @ WW
BID : 38768_LU1HVK
Read: DJ6UX GUEST
Subj: TLE 07 11
Path: DB0FHN<DB0FFL<OE5XBL<F1OYP<IZ3LSV<IW0QNL<JH4XSY<N3HYM<XE1FH<LU3DVN<
      LU1HVK
Sent: 200110/1559Z 38768@LU1HVK.2594.CBA.ARG.SA LinBPQ6.0.19

                         _    _   _ _ _   ___     ___  __
                        | |  | | | / | | | \ \   / / |/ /
                        | |  | | | | | |_| |\ \ / /| ' /
                        | |__| |_| | |  _  | \ V / | . \
                        |_____\___/|_|_| |_|  \_/  |_|\_\

     BBS/NODO - CORDOBA (LEONES-FF87UH) - LU1HVK-4 NODO - LU1HVK-3 APRS

+----------------------------------------------------------------------------+
OSCAR 7
1  7530U 74089B   19310.48795380 -.00000040 +00000-0 +33552-4 0  9998
2  7530 101.7659 276.8009 0012509 075.1707 040.3017 12.53640578057921
OSCAR 11 (UoSAT 2)
1 14781U 84021B   19310.50526721  .00000090  00000-0  17154-4 0  9999
2 14781  97.6030 328.5011 0007708 208.3653 151.7142 14.83117851919635
OSCAR 19 (LUSAT)
1 20442U 90005G   19310.78930393 +.00000015 +00000-0 +21728-4 0  9992
2 20442 098.6628 252.6347 0012895 093.1274 267.1385 14.32937142556524
EYESAT A
1 22825U 93061C   19310.48229516 -.00000004 +00000-0 +16581-4 0  9999
2 22825 098.9150 302.4101 0007654 314.4071 045.6484 14.30070289361809
ITAMSAT
1 22826U 93061D   19310.73093648 +.00000010 +00000-0 +21703-4 0  9991
2 22826 098.9089 302.6385 0008039 300.7443 059.2947 14.30404637362068
RADIO ROSTO
1 23439U 94085A   19310.79993329 -.00000042 +00000-0 +24322-4 0  9996
2 23439 064.8159 247.9306 0145352 085.6248 276.1267 11.27568543023806
JAS 2
1 24278U 96046B   19310.63487393 -.00000018  00000-0  20314-4 0  9999
2 24278  98.5597  85.0685 0349556 234.5564 122.2478 13.53094526146860
TECHSAT 1B
1 25397U 98043D   19310.46216367 -.00000005  00000-0  17182-4 0  9998
2 25397  98.7016 248.9712 0001585  33.0414 327.0863 14.23673703107908
ISS (ZARYA)
1 25544U 98067A   19310.99852581  .00001122  00000-0  27442-4 0  9990
2 25544  51.6447  13.1795 0005838 237.6320 182.3036 15.50259392197418
PCSAT
1 26931U 01043C   19310.58711190 -.00000025 +00000-0 +22337-4 0  9994
2 26931 067.0526 000.0997 0007481 266.4074 093.6172 14.30557635945053
SAUDISAT 1C
1 27607U 02058C   19310.58462297 -.00000008 +00000-0 +19671-4 0  9991
2 27607 064.5554 338.8310 0073310 229.0423 130.4321 14.75586341907694
CUTE-1
1 27844U 03031E   19310.71225181  .00000056  00000-0  44918-4 0  9994
2 27844  98.6850 316.8222 0009597 349.3739  10.7235 14.22203614848334
CUBESAT XI 4
1 27848U 03031J   19310.46316891 +.00000047 +00000-0 +41197-4 0  9995
2 27848 098.6924 317.1048 0009715 002.2183 357.9036 14.21795449848112
MOZHAYETS 4
1 27939U 03042A   19310.91524009 +.00000102 +00000-0 +26960-4 0  9993
2 27939 098.0606 084.1499 0012521 346.6834 013.4023 14.66815135861245
CUBESAT XI 5
1 28895U 05043F   19310.60670680  .00000124  00000-0  32618-4 0  9992
2 28895  97.9796  88.6814 0015503 266.4527  93.4902 14.63707421748092
CUTE-1.7+APD II
1 32785U 08021C   19310.73552524 +.00000217 +00000-0 +28973-4 0  9996
2 32785 097.5577 303.8561 0013754 149.5767 210.6252 14.88368993624595
DELFI C3
1 32789U 08021G   19310.44288468  .00000761  00000-0  54446-4 0  9999
2 32789  97.4490 355.7604 0012217  11.5549 348.5958 15.07232135628166
SEEDS
1 32791U 08021J   19310.64996112 +.00000204 +00000-0 +26012-4 0  9996
2 32791 097.5323 309.8681 0014597 124.7144 235.5453 14.90903440625034
YUBELEINY
1 32953U 08025A   19310.73278387  .00000020  00000-0  75656-4 0  9991
2 32953  82.5053  57.0419 0019753 179.1870 180.9247 12.43092018519838
PRISM (HITOMI)
1 33493U 09002B   19310.59083882 +.00000353 +00000-0 +36318-4 0  9996
2 33493 098.1243 236.9013 0016181 077.1060 283.1967 14.96788760586217
KKS-1 (KISEKI)
1 33499U 09002H   19310.73249698 +.00000112 +00000-0 +24556-4 0  9991
2 33499 098.3379 153.8751 0010252 114.3015 245.9265 14.75476390579598
SWISSCUBE
1 35932U 09051B   19310.72141466 +.00000137 +00000-0 +41907-4 0  9998
2 35932 098.5994 120.9442 0008706 093.1926 267.0267 14.56326169537267
BEESAT
1 35933U 09051C   19310.71598754  .00000124  00000-0  39081-4 0  9990
2 35933  98.6010 122.7537 0006884 104.1600 256.0362 14.56410112537413
ITUPSAT 1
1 35935U 09051E   19310.44276882  .00000101  00000-0  34368-4 0  9995
2 35935  98.6119 122.6983 0009203 103.5175 256.7047 14.55564365537110
XIWANG-1 (HOPE-1)
1 36122U 09072B   19310.72432073 -.00000045 +00000-0 -86053-5 0  9992
2 36122 100.0796 306.5065 0007688 024.8880 335.2604 13.16351710475437
TISAT 1
1 36799U 10035E   19310.73401239  .00000386  00000-0  44936-4 0  9993
2 36799  98.1727 107.7326 0011922 349.4500  10.6465 14.91195520505780
JUGNU
1 37839U 11058B   19310.79217073 +.00000295 +00000-0 +15746-4 0  9998
2 37839 019.9599 199.1207 0018993 082.9843 328.4116 14.12663514417120
SRMSAT
1 37841U 11058D   19310.21025444  .00000310  00000-0  25083-4 0  9990
2 37841  19.9719 262.3344 0011646 300.5857 187.9315 14.10642502416551
M-CUBED/EXP-1 PRIME
1 37855U 11061F   19310.62169694  .00001829  00000-0  98243-4 0  9994
2 37855 101.7202 278.5981 0172801  18.9686 341.7858 15.05738481437989
HORYU 2
1 38340U 12025D   19310.74174302 +.00000170 +00000-0 +32833-4 0  9991
2 38340 098.3141 353.4539 0012177 040.1492 320.0613 14.75770176391559
STRAND 1
1 39090U 13009E   19310.55466957 +.00000036 +00000-0 +27922-4 0  9990
2 39090 098.4735 154.0647 0008263 226.1927 133.8575 14.35103905350577
SOMP
1 39134U 13015E   19310.72481321 +.00001360 +00000-0 +70388-4 0  9992
2 39134 064.8626 283.4213 0037389 280.4807 079.2108 15.20470652361656
BEESAT 3
1 39135U 13015F   19310.43802196 +.00000990 +00000-0 +57996-4 0  9996
2 39135 064.8668 304.6503 0039134 286.0122 073.6695 15.17707702361219
BEESAT 2
1 39136U 13015G   19310.46284978 +.00001007 +00000-0 +60068-4 0  9996
2 39136 064.8680 308.8034 0029979 290.8611 068.9305 15.17122616361132
CUBEBUG 1
1 39153U 13018D   19310.73880884  .00000195  00000-0  32347-4 0  9992
2 39153  97.9817  48.0966 0018303 101.0989 259.2282 14.80619531352682
ZACUBE
1 39417U 13066B   19310.49380323  .00000201  00000-0  31712-4 0  9997
2 39417  97.5624 316.0807 0057530 292.9401  66.5747 14.81173342321882
TRITON 1
1 39427U 13066M   19310.56185687  .00000219  00000-0  42490-4 0  9996
2 39427  97.6949 279.3693 0115165  74.6487 286.7410 14.67900741319005
GOMX 1
1 39430U 13066Q   19310.87341747 +.00000156 +00000-0 +37036-4 0  9995
2 39430 097.7633 258.2444 0151126 168.6129 191.8559 14.59304400317193
HUMSAT D
1 39433U 13066T   19310.56380397 +.00000213 +00000-0 +26034-4 0  9998
2 39433 097.5378 352.1967 0030619 187.7588 172.3162 14.92292276322901
CUBEBUG 2
1 39440U 13066AA  19310.77021510 +.00000243 +00000-0 +40732-4 0  9992
2 39440 097.6118 300.9444 0079911 347.7387 012.1877 14.75911401319589
FUNCUBE 1
1 39444U 13066AE  19310.75374522 +.00000259 +00000-0 +38318-4 0  9992
2 39444 097.5590 318.4021 0056588 285.1416 074.3543 14.82004300320237
UWE-3
1 39446U 13066AG  19310.53266844  .00000223  00000-0  36279-4 0  9992
2 39446  97.5864 307.8739 0069066 321.4594  38.1697 14.78445946320077
SPROUT
1 39770U 14029E   19310.70189598  .00000629  00000-0  75490-4 0  9999
2 39770  97.8898  53.1336 0008812 350.6452   9.4588 14.87490493295797
UNISAT 6
1 40012U 14033C   19310.73838123 +.00000175 +00000-0 +33465-4 0  9995
2 40012 097.7359 171.1251 0058536 004.1123 356.0555 14.74028380289460
DUCHIFAT 1
1 40021U 14033M   19310.77539701 +.00000293 +00000-0 +35739-4 0  9996
2 40021 097.9273 235.8496 0011869 309.9371 050.0803 14.90727740292561
QB50P1
1 40025U 14033R   19310.75640705 +.00000225 +00000-0 +29945-4 0  9992
2 40025 097.9058 230.2006 0011562 321.0505 038.9878 14.89014130291809
CHUBUSAT 1
1 40300U 14070C   19310.68123314  .00000636  00000-0  30562-4 0  9996
2 40300  97.3142  21.2135 0018760 282.4411 229.3278 15.22237264277466
NUDT-PHONESAT
1 40900U 15049B   19310.84434119  .00001824  00000-0  79860-4 0  9999
2 40900  97.4370 318.8266 0014116  54.4385  67.6775 15.23236235229149
ZDPS 2A
1 40901U 15049C   19310.94526309 +.00000676 +00000-0 +36595-4 0  9996
2 40901 097.4623 314.7562 0015154 073.4094 311.3860 15.17912542228661
ZDPS 2B
1 40902U 15049D   19310.86440821 +.00001140 +00000-0 +59588-4 0  9996
2 40902 097.4583 312.0583 0015123 071.6170 013.7978 15.17794531228627
XW-2A
1 40903U 15049E   19310.79177361  .00001576  00000-0  38558-4 0  9992
2 40903  97.3213 354.2556 0013380   2.7230 107.8634 15.42282981231997
KAITUO 1A
1 40904U 15049F   19310.95998008 +.00000484 +00000-0 +28972-4 0  9996
2 40904 097.4717 310.5922 0016317 079.2463 304.8171 15.15489723228398
OBJECT G
1 40905U 15049G   19310.94430867 +.00000105 +00000-0 +92867-5 0  9995
2 40905 097.4769 307.9833 0017329 075.0489 315.3970 15.14380199228258
XW-2C
1 40906U 15049H   19310.74794376  .00000595  00000-0  34564-4 0  9994
2 40906  97.4732 310.5337 0016402  72.5635  30.9437 15.15810959228367
XW-2D
1 40907U 15049J   19310.95831464 +.00000378 +00000-0 +23075-4 0  9992
2 40907 097.4703 310.4231 0015696 068.8329 321.8229 15.16009889228410
LILACSAT 2
1 40908U 15049K   19310.78833509  .00000230  00000-0  16302-4 0  9998
2 40908  97.4843 308.9176 0017565  76.2279  50.4701 15.13883632228154
XW-2F
1 40910U 15049M   19310.86030416 +.00001035 +00000-0 +54829-4 0  9996
2 40910 097.4658 312.5457 0016346 061.8500 023.6994 15.17515715228421
XW-2B
1 40911U 15049N   19310.87538182 +.00000719 +00000-0 +40876-4 0  9996
2 40911 097.4730 311.0149 0015630 070.4529 013.8600 15.15940793228293
KAITUO 1B
1 40912U 15049P   19310.81482844  .00001111  00000-0  54852-4 0  9990
2 40912  97.4511 316.3643 0016154  44.4989  81.5010 15.19855081228747
TIANWANG 1C (TW-1C)
1 40926U 15051B   19310.79142545  .00011987  00000-0  15733-3 0  9992
2 40926  97.1190 356.8989 0006912 191.4236 280.2877 15.58654360232118
TIANWANG 1B (TW-1B)
1 40927U 15051C   19310.83196366  .00011026  00000-0  15480-3 0  9991
2 40927  97.1222 356.0159 0006685 204.3991 243.6233 15.56867679231952
